Volver al catálogo

STARLINK-5612

ActivoComunicacionesVLEO
NORAD 55754·PAYLOAD·🇺🇸 United States

Lanzado Mar 3, 2023 desde Vandenberg Space Force Base

Loading…

Próximos Pases (próximas 24 horas)

TLE

ActualizadoSource: CelesTrak SupGP

Época: Sep 15, 2026, 02:17 UTC

1 55754C 23028P   26258.09562500  .00027853  00000+0  23341-2 0  2588
2 55754  70.0004 126.8132 0002863 279.9922  73.6100 14.98318798    17

Sigue STARLINK-5612 en tiempo real con AllMySat

Download on the App Store